[[{"header":{"parameterUnit":"m.s-1","parameterCategory":1,"la1":30.2991,"la2":30.254,"lo1":-89.0895,"lo2":-89.0444,"dy":0.0017,"dx":0.0017,"nx":28,"ny":28,"refTime":"2025-07-24T09:00:00:Z","depth":0,"parameterNumber":2,"parameterNumberName":"U-component_of_WINDS"},"data":[0,0,0,0,0,0,0,0,0,0,0,0,0,0,0,0,0,0,0,0,0,0,0,0,0,0,0,0,0,0,0,0,0,0,0,0,0,0,0,0,0,0,0,0,0,0,0,0,0,0,0,0,0,0,0,0,0,0,-2.198,-2.1981,0,-2.2072,-2.2073,-2.2074,-2.2087,-2.2086,-2.2085,-2.2084,-2.2178,-2.2181,-2.2185,0,0,0,0,0,0,0,0,0,0,0,0,0,-2.1813,-2.1816,-2.1979,-2.1981,-2.1982,-2.2072,-2.2073,-2.2074,-2.2087,-2.2086,-2.2085,-2.2084,-2.2177,-2.2181,-2.2185,0,0,0,0,0,0,0,0,0,0,0,0,0,-2.1894,-2.1817,-2.1979,-2.1999,-2.2002,-2.2072,-2.2073,-2.2075,-2.2087,-2.2086,-2.2084,-2.2083,-2.2176,-2.2181,-2.2186,-2.2242,0,0,-2.2201,-2.2203,0,0,0,0,0,0,0,0,-2.1889,-2.19,-2.1995,-2.1998,-2.2001,-2.2067,-2.2049,-2.2131,-2.2087,-2.2055,-2.2084,-2.2083,-2.2142,-2.215,-2.217,-2.2247,-2.2251,-2.2201,-2.2204,-2.2206,-2.2208,0,0,0,0,0,0,0,-2.1884,-2.1896,-2.2016,-2.1996,-2.2,-2.2003,-2.2013,-2.2065,-2.2104,-2.2057,-2.2058,-2.2069,-2.2143,-2.2165,-2.2172,-2.2252,-2.2201,-2.2206,-2.2209,-2.2211,-2.238,-2.2382,0,0,0,0,0,0,-2.1874,-2.1891,-2.2013,-2.2019,-2.1941,-2.2007,-2.2018,-2.2047,-2.2104,-2.2111,-2.207,-2.207,-2.2157,-2.2166,-2.2176,-2.2246,-2.2206,-2.2211,-2.2214,-2.2379,-2.2381,-2.2382,0,0,0,0,0,0,-2.1871,-2.1885,-2.2009,-2.1955,-2.1971,-2.2011,-2.2043,-2.2049,-2.2071,-2.2114,-2.2121,-2.2085,-2.2157,-2.2169,-2.2226,-2.2249,-2.2213,-2.2218,-2.2377,-2.2379,-2.2381,-2.2386,0,0,0,0,0,0,-2.1866,-2.1884,-2.1906,-2.1956,-2.1974,-2.2058,-2.2045,-2.2052,-2.208,-2.2079,-2.213,-2.2137,-2.2157,-2.2218,-2.2231,-2.2255,-2.2222,-2.2375,-2.2378,-2.2381,-2.2384,-2.2388,-2.2392,0,0,0,0,0,-2.186,-2.1903,-2.1907,-2.1922,-2.2003,-2.2059,-2.207,-2.2092,-2.2081,-2.2104,-2.2131,-2.2135,-2.2245,-2.2224,-2.2238,-2.2264,-2.2374,-2.2377,-2.2381,-2.2382,-2.2387,-2.2392,0,0,0,0,0,0,-2.1855,-2.191,-2.1915,-2.1976,-2.2013,-2.2061,-2.209,-2.2097,-2.2138,-2.2136,-2.2161,-2.2173,-2.2229,-2.2252,-2.2228,-2.2322,-2.2308,-2.2315,-2.2305,-2.231,-2.2314,-2.2306,-2.2226,0,0,0,0,0,-2.1861,-2.1902,-2.1949,-2.1998,-2.2016,-2.205,-2.2076,-2.209,-2.2129,-2.2145,-2.2176,-2.2214,-2.2257,-2.2285,-2.2327,-2.2388,-2.2399,-2.2413,-2.2417,-2.242,-2.2425,-2.2458,-2.2465,-2.2394,-2.2393,-2.2393,0,0,-2.1874,-2.1909,-2.1934,-2.1998,-2.2028,-2.207,-2.2063,-2.2108,-2.214,-2.2151,-2.2207,-2.2232,-2.2276,-2.2335,-2.2363,-2.2357,-2.2447,-2.2424,-2.2426,-2.243,-2.2463,-2.2469,-2.2475,-2.2396,-2.2395,-2.2395,0,0,-2.1918,-2.1949,-2.1993,-2.2024,-2.207,-2.2093,-2.2103,-2.2151,-2.2168,-2.2225,-2.2234,-2.2272,-2.2346,-2.2377,-2.2402,-2.2459,-2.2464,-2.2472,-2.2492,-2.2525,-2.253,-2.2535,-2.2555,-2.2562,-2.2477,-2.2477,-2.2477,0,-2.1928,-2.1992,-2.2015,-2.206,-2.2088,-2.2101,-2.2146,-2.2175,-2.2232,-2.2251,-2.2243,-2.2336,-2.2367,-2.2433,-2.2447,-2.2467,-2.248,-2.2466,-2.2528,-2.2533,-2.2538,-2.2557,-2.2564,-2.2478,-2.2478,-2.2478,-2.2478,0,-2.2002,-2.2046,-2.2076,-2.2131,-2.2163,-2.2207,-2.2237,-2.2266,-2.2278,-2.2301,-2.2358,-2.2395,-2.2445,-2.2462,-2.2474,-2.253,-2.2525,-2.2522,-2.2508,-2.2545,-2.2563,-2.2571,-2.2479,-2.2478,-2.2478,-2.2478,0,0,-2.2045,-2.2113,-2.2123,-2.2148,-2.2201,-2.2235,-2.2281,-2.2329,-2.2353,-2.2393,-2.2431,-2.2494,-2.2491,-2.252,-2.2536,-2.2564,-2.2606,-2.2558,-2.2559,-2.2565,-2.267,-2.2671,-2.2679,-2.261,-2.2611,-2.2613,-2.2666,0,-2.2095,-2.2176,-2.2198,-2.2267,-2.2308,-2.2321,-2.236,-2.2397,-2.2419,-2.2458,-2.2483,-2.2526,-2.2521,-2.2538,-2.2567,-2.2595,-2.2627,-2.2591,-2.2645,-2.2647,-2.2633,-2.2689,-2.269,-2.2739,-2.2673,-2.2675,-2.2676,0,-2.2164,-2.2205,-2.2277,-2.2324,-2.2342,-2.2377,-2.2424,-2.246,-2.2501,-2.2516,-2.2548,-2.2561,-2.2609,-2.2593,-2.2658,-2.2633,-2.2657,-2.2674,-2.2676,-2.2682,-2.2663,-2.2695,-2.2755,-2.2762,-2.2687,-2.2686,-2.2685,0,-2.2188,-2.2261,-2.2313,-2.2335,-2.2391,-2.2415,-2.2439,-2.248,-2.2507,-2.2548,-2.2566,-2.2612,-2.2637,-2.2672,-2.2696,-2.2683,-2.276,-2.2746,-2.2773,-2.2772,-2.2788,-2.2786,-2.2852,-2.2804,-2.2804,-2.2804,-2.2804,0,-2.2241,-2.2284,-2.2325,-2.2357,-2.2406,-2.2432,-2.248,-2.2505,-2.2541,-2.2578,-2.2592,-2.2627,-2.2658,-2.2697,-2.2716,-2.2767,-2.2779,-2.2791,-2.2796,-2.279,-2.2788,-2.2805,-2.2802,-2.2806,-2.2806,-2.2805,-2.2805,0,-2.2275,-2.2304,-2.2362,-2.241,-2.2424,-2.2458,-2.2499,-2.2531,-2.2555,-2.2602,-2.2614,-2.2651,-2.2697,-2.2726,-2.2785,-2.2798,-2.2854,-2.2858,-2.284,-2.2842,-2.2867,-2.2864,-2.2945,-2.2956,-2.2902,-2.2902,-2.2903,0,-2.2307,-2.2341,-2.2393,-2.2419,-2.2443,-2.2485,-2.2514,-2.254,-2.257,-2.2619,-2.2645,-2.2692,-2.2732,-2.2805,-2.2837,-2.2882,-2.2887,-2.2912,-2.2893,-2.2886,-2.2886,-2.2884,-2.2887,-2.2915,-2.2915,-2.2915,-2.2916,0,-2.236,-2.2372,-2.2413,-2.2459,-2.2492,-2.253,-2.2567,-2.2587,-2.262,-2.2652,-2.27,-2.273,-2.279,-2.2837,-2.2885,-2.291,-2.2918,-2.2922,-2.293,-2.2924,-2.2912,-2.2918,-2.2848,-2.2919,-2.2919,-2.2919,-2.2919,-2.2918,-2.2394,-2.2424,-2.2466,-2.251,-2.2541,-2.2575,-2.2607,-2.2635,-2.2675,-2.2726,-2.274,-2.279,-2.283,-2.2895,-2.2921,-2.2961,-2.2957,-2.2969,-2.2972,-2.2975,-2.2975,-2.2906,-2.297,-2.2969,-2.2969,-2.2969,-2.2969,0,-2.2447,-2.2474,-2.2515,-2.2567,-2.2602,-2.2607,-2.2648,-2.2677,-2.2721,-2.2758,-2.2796,-2.2851,-2.2896,-2.2932,-2.2979,-2.3003,-2.3008,-2.3014,-2.3012,-2.3018,-2.2976,-2.2964,-2.301,-2.301,-2.301,-2.3009,-2.3009,-2.3009,-2.2479,-2.2531,-2.2548,-2.2615,-2.2643,-2.2691,-2.2715,-2.2746,-2.2776,-2.2836,-2.2874,-2.2897,-2.2934,-2.2983,-2.3025,-2.3034,-2.305,-2.3056,-2.3066,-2.3025,-2.3021,-2.3017,-2.3005,-2.3059,-2.3059,-2.3104,-2.3105,-2.3105]},{"header":{"parameterUnit":"m.s-1","parameterCategory":1,"la1":30.2991,"la2":30.254,"lo1":-89.0895,"lo2":-89.0444,"dy":0.0017,"dx":0.0017,"nx":28,"ny":28,"refTime":"2025-07-24T09:00:00:Z","depth":0,"parameterNumber":3,"parameterNumberName":"V-component_of_WINDS"},"data":[0,0,0,0,0,0,0,0,0,0,0,0,0,0,0,0,0,0,0,0,0,0,0,0,0,0,0,0,0,0,0,0,0,0,0,0,0,0,0,0,0,0,0,0,0,0,0,0,0,0,0,0,0,0,0,0,0,0,5.6588,5.6588,0,5.663,5.663,5.6631,5.6541,5.6539,5.6536,5.6533,5.6573,5.6577,5.658,0,0,0,0,0,0,0,0,0,0,0,0,0,5.6426,5.6429,5.6588,5.6588,5.6589,5.663,5.663,5.6631,5.6542,5.6538,5.6535,5.6532,5.6572,5.6576,5.6581,0,0,0,0,0,0,0,0,0,0,0,0,0,5.6485,5.643,5.6588,5.655,5.6547,5.663,5.663,5.6631,5.6543,5.6538,5.6534,5.653,5.657,5.6576,5.6581,5.6703,0,0,5.6599,5.6601,0,0,0,0,0,0,0,0,5.6482,5.6491,5.6555,5.6552,5.6549,5.6576,5.6588,5.6655,5.6544,5.6544,5.6533,5.6528,5.6577,5.6582,5.6599,5.6705,5.6706,5.6599,5.6602,5.6605,5.6606,0,0,0,0,0,0,0,5.6478,5.6489,5.6604,5.6556,5.6552,5.6529,5.6532,5.66,5.6584,5.6544,5.6537,5.6544,5.6575,5.6594,5.66,5.6707,5.6599,5.6604,5.6607,5.661,5.691,5.6914,0,0,0,0,0,0,5.6479,5.6486,5.6603,5.6606,5.6504,5.6535,5.6539,5.6572,5.6583,5.6581,5.6547,5.6539,5.6587,5.6593,5.6601,5.6741,5.6605,5.661,5.6613,5.6905,5.6911,5.6916,0,0,0,0,0,0,5.6476,5.649,5.6601,5.6544,5.6556,5.6543,5.658,5.6575,5.6594,5.6586,5.6582,5.657,5.6584,5.6593,5.6677,5.6741,5.6613,5.6618,5.69,5.6907,5.6913,5.7023,0,0,0,0,0,0,5.6472,5.649,5.6537,5.6546,5.656,5.6679,5.6584,5.6579,5.6604,5.6594,5.6607,5.6604,5.6581,5.6669,5.6683,5.6746,5.6622,5.6894,5.6903,5.6911,5.7014,5.7033,5.705,0,0,0,0,0,5.6466,5.6567,5.654,5.6555,5.6619,5.6683,5.6691,5.6662,5.661,5.6656,5.665,5.6604,5.6732,5.6679,5.6693,5.6759,5.689,5.69,5.691,5.7006,5.7029,5.7049,0,0,0,0,0,0,5.6565,5.6567,5.6538,5.6644,5.6664,5.6668,5.6725,5.6689,5.6723,5.6712,5.6675,5.6678,5.6769,5.6773,5.6713,5.6875,5.6802,5.6815,5.687,5.6892,5.6909,5.6905,5.6627,0,0,0,0,0,5.66,5.6653,5.6651,5.6745,5.6757,5.674,5.6767,5.6743,5.6762,5.6769,5.677,5.6789,5.6833,5.6863,5.6903,5.7015,5.7014,5.7067,5.7085,5.71,5.7111,5.7167,5.7189,5.695,5.6949,5.6949,0,0,5.6671,5.6678,5.6714,5.6765,5.6778,5.6832,5.6747,5.6809,5.6847,5.6778,5.6857,5.6859,5.6877,5.6975,5.7018,5.6981,5.7177,5.7113,5.7125,5.7128,5.718,5.7203,5.7223,5.6957,5.6955,5.6954,0,0,5.6828,5.684,5.6918,5.6932,5.6953,5.694,5.6959,5.6968,5.6966,5.7046,5.6994,5.7039,5.7117,5.7131,5.7149,5.7309,5.7266,5.7323,5.7415,5.747,5.7489,5.7506,5.756,5.758,5.7335,5.7335,5.7336,0,5.6913,5.6994,5.6963,5.7027,5.705,5.699,5.7067,5.7082,5.7115,5.7131,5.7089,5.7183,5.7192,5.729,5.7329,5.7347,5.7365,5.7321,5.7489,5.7506,5.752,5.7572,5.7593,5.7342,5.7341,5.7341,5.734,0,5.7096,5.7153,5.7213,5.7246,5.7275,5.7346,5.7324,5.7357,5.7331,5.7322,5.7402,5.741,5.7449,5.7471,5.7447,5.7566,5.7542,5.7496,5.742,5.755,5.7598,5.7617,5.7351,5.7349,5.7347,5.7345,0,0,5.7317,5.733,5.7352,5.7365,5.7382,5.7424,5.7491,5.753,5.7558,5.7582,5.7635,5.7702,5.7658,5.7678,5.7654,5.7703,5.7825,5.765,5.765,5.768,5.7954,5.7987,5.801,5.7798,5.7802,5.7805,5.7951,0,5.747,5.7585,5.7558,5.7671,5.7721,5.7664,5.7722,5.7738,5.7731,5.7771,5.7764,5.781,5.7751,5.7762,5.7808,5.7801,5.7879,5.779,5.7845,5.7847,5.784,5.8036,5.8071,5.8209,5.797,5.7973,5.7976,0,5.7664,5.7694,5.7813,5.7819,5.7839,5.7891,5.7923,5.7963,5.7979,5.797,5.7992,5.7958,5.8022,5.7948,5.8033,5.7973,5.7994,5.7994,5.7998,5.8,5.7918,5.804,5.8253,5.8273,5.8005,5.8003,5.8001,0,5.7809,5.788,5.7959,5.7972,5.7982,5.802,5.8025,5.8037,5.8061,5.8089,5.8104,5.814,5.8158,5.8185,5.8161,5.811,5.8249,5.8174,5.8242,5.8243,5.8272,5.827,5.8489,5.8291,5.829,5.829,5.8289,0,5.7981,5.8055,5.8024,5.8072,5.8152,5.812,5.82,5.8199,5.8209,5.8255,5.8208,5.8252,5.8218,5.8258,5.8239,5.8311,5.8321,5.8314,5.8308,5.8317,5.8318,5.8329,5.8318,5.8295,5.8294,5.8293,5.8292,0,5.8156,5.8139,5.822,5.8223,5.8225,5.8284,5.8285,5.8329,5.8319,5.8377,5.8389,5.8372,5.8417,5.8396,5.8443,5.843,5.8522,5.8504,5.8517,5.8511,5.858,5.8572,5.8811,5.8839,5.8625,5.8627,5.8629,0,5.8266,5.8321,5.8329,5.8356,5.8365,5.8411,5.8435,5.8404,5.8431,5.8452,5.8493,5.8534,5.8564,5.8638,5.863,5.8665,5.8646,5.8727,5.865,5.8657,5.8643,5.8639,5.8643,5.8741,5.8744,5.8746,5.8747,0,5.8462,5.845,5.8487,5.8521,5.8551,5.8576,5.8597,5.8622,5.8592,5.8624,5.8669,5.8693,5.874,5.878,5.8811,5.8815,5.8776,5.8772,5.8789,5.8798,5.8802,5.8797,5.8556,5.8766,5.8764,5.8763,5.8762,5.8761,5.8605,5.8651,5.8663,5.8705,5.8717,5.8737,5.8778,5.8772,5.8809,5.8845,5.8825,5.8877,5.8889,5.8925,5.8935,5.8974,5.8941,5.8967,5.8973,5.8979,5.8987,5.8797,5.898,5.8979,5.8979,5.8978,5.8978,0,5.8796,5.8801,5.884,5.887,5.8903,5.8864,5.8884,5.8914,5.896,5.8975,5.9006,5.9056,5.9095,5.9089,5.9123,5.9156,5.9138,5.9166,5.9162,5.9163,5.9016,5.8996,5.9179,5.9179,5.9179,5.9179,5.9179,5.9179,5.8899,5.8973,5.8962,5.904,5.9044,5.9095,5.9109,5.9127,5.9138,5.9196,5.9228,5.9224,5.923,5.9264,5.9296,5.9294,5.9307,5.9341,5.9331,5.9193,5.9173,5.9154,5.9136,5.9345,5.9345,5.9474,5.9476,5.9477]}]]